TimeCDT,TemperatureF,Dew PointF,Humidity,Sea Level PressureIn,VisibilityMPH,Wind Direction,Wind SpeedMPH,Gust SpeedMPH,PrecipitationIn,Events,Conditions,WindDirDegrees,DateUTC
12:52 AM,61.0,57.0,87,29.78,10.0,North,5.8,-,N/A,,Mostly Cloudy,350,2013-06-30 05:52:00
1:52 AM,63.0,57.0,81,29.79,10.0,NNE,8.1,-,N/A,,Overcast,20,2013-06-30 06:52:00
2:52 AM,63.0,57.0,81,29.79,10.0,North,9.2,-,N/A,,Overcast,360,2013-06-30 07:52:00
3:52 AM,63.0,57.9,84,29.80,10.0,North,9.2,-,N/A,,Overcast,360,2013-06-30 08:52:00
4:52 AM,61.0,57.0,87,29.81,10.0,North,8.1,-,N/A,,Clear,360,2013-06-30 09:52:00
5:52 AM,62.1,55.9,80,29.83,8.0,NNE,10.4,-,N/A,,Overcast,20,2013-06-30 10:52:00
6:52 AM,63.0,57.0,81,29.85,9.0,NNE,10.4,-,N/A,,Overcast,20,2013-06-30 11:52:00
7:52 AM,64.0,57.0,78,29.87,9.0,NNE,10.4,-,N/A,,Overcast,20,2013-06-30 12:52:00
8:52 AM,66.0,57.0,73,29.88,10.0,NNE,9.2,-,N/A,,Mostly Cloudy,20,2013-06-30 13:52:00
9:52 AM,69.1,60.1,73,29.89,10.0,NNE,6.9,-,N/A,,Scattered Clouds,30,2013-06-30 14:52:00
10:52 AM,72.0,59.0,64,29.90,10.0,NE,12.7,-,N/A,,Mostly Cloudy,40,2013-06-30 15:52:00
11:52 AM,75.0,60.1,60,29.90,10.0,NNE,8.1,-,N/A,,Scattered Clouds,20,2013-06-30 16:52:00
12:52 PM,78.1,59.0,52,29.90,10.0,NNE,12.7,-,N/A,,Clear,20,2013-06-30 17:52:00
1:52 PM,79.0,57.9,48,29.89,10.0,NNE,12.7,21.9,N/A,,Partly Cloudy,20,2013-06-30 18:52:00
2:52 PM,79.0,57.9,48,29.90,10.0,NNE,15.0,25.3,N/A,,Mostly Cloudy,30,2013-06-30 19:52:00
3:52 PM,78.1,55.0,45,29.91,10.0,NE,13.8,24.2,N/A,,Partly Cloudy,40,2013-06-30 20:52:00
4:52 PM,78.1,53.1,42,29.91,10.0,NNE,19.6,24.2,N/A,,Clear,30,2013-06-30 21:52:00
5:52 PM,75.9,50.0,40,29.94,10.0,NNE,19.6,24.2,N/A,,Clear,20,2013-06-30 22:52:00
6:52 PM,73.9,51.1,45,29.95,10.0,NNE,11.5,-,N/A,,Clear,20,2013-06-30 23:52:00
7:52 PM,69.1,51.1,53,29.96,10.0,NNE,5.8,-,N/A,,Partly Cloudy,20,2013-07-01 00:52:00
8:52 PM,66.9,43.0,42,29.97,10.0,NNE,11.5,-,N/A,,Clear,30,2013-07-01 01:52:00
9:52 PM,64.0,45.0,50,29.99,10.0,NNE,10.4,-,N/A,,Clear,20,2013-07-01 02:52:00
10:52 PM,64.0,46.0,52,29.99,10.0,NNE,9.2,-,N/A,,Scattered Clouds,20,2013-07-01 03:52:00
11:52 PM,63.0,46.0,54,29.99,10.0,NNE,8.1,-,N/A,,Mostly Cloudy,20,2013-07-01 04:52:00